Time,TemperatureF,DewpointF,PressureIn,WindDirection,WindDirectionDegrees,WindSpeedMPH,WindSpeedGustMPH,Humidity,HourlyPrecipIn,Conditions,Clouds,dailyrainin,SoftwareType,DateUTC
2013-04-05 00:00:00,67.1,65.9,29.84,SW,229,2.0,10.0,96,0.02,,---,1.30,VWS V14.01,2013-04-05 04:00:00,
2013-04-05 00:03:00,67.1,65.9,29.84,West,275,3.0,7.0,96,0.02,,---,1.30,VWS V14.01,2013-04-05 04:03:00,
2013-04-05 00:08:00,67.1,65.9,29.84,SW,224,0.0,14.0,96,0.02,,---,1.30,VWS V14.01,2013-04-05 04:08:00,
2013-04-05 00:10:00,67.1,65.9,29.84,SSW,200,3.0,14.0,96,0.02,,---,1.30,VWS V14.01,2013-04-05 04:10:00,
2013-04-05 00:14:00,67.1,65.9,29.84,South,172,7.0,10.0,96,0.01,,---,1.30,VWS V14.01,2013-04-05 04:14:00,
2013-04-05 00:19:00,66.9,65.7,29.81,South,188,0.0,10.0,96,0.01,,---,1.30,VWS V14.01,2013-04-05 04:19:00,
2013-04-05 00:20:00,66.9,65.7,29.81,SSW,192,3.0,10.0,96,0.01,,---,1.30,VWS V14.01,2013-04-05 04:20:00,
2013-04-05 00:24:00,66.9,65.7,29.81,South,181,6.0,10.0,96,0.01,,---,1.30,VWS V14.01,2013-04-05 04:24:00,
2013-04-05 00:29:00,66.8,65.6,29.81,SSW,203,3.0,10.0,96,0.01,,---,1.30,VWS V14.01,2013-04-05 04:29:00,
2013-04-05 00:30:00,66.8,65.6,29.78,South,184,2.0,10.0,96,0.01,,---,1.30,VWS V14.01,2013-04-05 04:30:00,
2013-04-05 00:34:00,66.8,65.6,29.78,SSW,195,8.0,11.0,96,0.01,,---,1.30,VWS V14.01,2013-04-05 04:34:00,
2013-04-05 07:17:00,67.9,66.7,29.80,WNW,287,2.0,11.0,96,0.01,,---,0.09,VWS V14.01,2013-04-05 11:17:00,
2013-04-05 07:18:00,67.9,66.7,29.80,WNW,287,3.0,11.0,96,0.11,,---,0.09,VWS V14.01,2013-04-05 11:18:00,
2013-04-05 07:19:00,68.1,66.9,29.80,WSW,254,2.0,11.0,96,0.11,,---,0.09,VWS V14.01,2013-04-05 11:19:00,
2013-04-05 07:20:00,68.1,66.9,29.80,WNW,291,1.0,4.0,96,0.00,,---,0.09,VWS V14.01,2013-04-05 11:20:00,
2013-04-05 07:21:00,68.1,66.9,29.80,West,275,1.0,4.0,96,0.00,,---,0.09,VWS V14.01,2013-04-05 11:21:00,
2013-04-05 07:22:00,68.1,66.9,29.80,West,270,1.0,4.0,96,0.00,,---,0.09,VWS V14.01,2013-04-05 11:22:00,
2013-04-05 07:30:00,68.3,67.1,29.81,NW,306,3.0,6.0,96,0.00,,---,0.09,VWS V14.01,2013-04-05 11:30:00,
2013-04-05 07:40:00,68.6,67.4,29.81,West,271,1.0,8.0,96,0.00,,---,0.09,VWS V14.01,2013-04-05 11:40:00,
2013-04-05 07:50:00,68.8,67.6,29.81,NW,308,5.0,7.0,96,0.01,,---,0.10,VWS V14.01,2013-04-05 11:50:00,
2013-04-05 08:00:00,68.9,67.7,29.81,WNW,299,3.0,8.0,96,0.01,,---,0.10,VWS V14.01,2013-04-05 12:00:00,
2013-04-05 08:18:00,67.9,66.7,29.80,WNW,287,2.0,11.0,96,0.01,,---,0.09,VWS V14.01,2013-04-05 12:18:00,
2013-04-05 08:20:00,68.1,66.9,29.80,WNW,292,4.0,11.0,96,0.11,,---,0.09,VWS V14.01,2013-04-05 12:20:00,
2013-04-05 08:23:00,68.1,66.9,29.80,WSW,254,1.0,4.0,96,0.00,,---,0.09,VWS V14.01,2013-04-05 12:23:00,
2013-04-05 08:28:00,68.3,67.1,29.80,West,281,2.0,6.0,96,0.00,,---,0.09,VWS V14.01,2013-04-05 12:28:00,
2013-04-05 08:30:00,68.3,67.1,29.81,NW,306,3.0,6.0,96,0.00,,---,0.09,VWS V14.01,2013-04-05 12:30:00,
2013-04-05 08:33:00,68.4,67.2,29.81,West,280,1.0,8.0,96,0.00,,---,0.09,VWS V14.01,2013-04-05 12:33:00,
2013-04-05 08:38:00,68.4,67.2,29.81,WNW,289,2.0,8.0,96,0.00,,---,0.09,VWS V14.01,2013-04-05 12:38:00,
2013-04-05 08:40:00,68.6,67.4,29.81,West,271,1.0,8.0,96,0.00,,---,0.09,VWS V14.01,2013-04-05 12:40:00,
2013-04-05 08:43:00,68.6,67.4,29.81,WNW,301,2.0,7.0,96,0.01,,---,0.10,VWS V14.01,2013-04-05 12:43:00,
2013-04-05 08:48:00,68.8,67.6,29.81,WSW,243,1.0,7.0,96,0.01,,---,0.10,VWS V14.01,2013-04-05 12:48:00,
2013-04-05 08:50:00,68.8,67.6,29.81,NW,308,5.0,7.0,96,0.01,,---,0.10,VWS V14.01,2013-04-05 12:50:00,
2013-04-05 08:53:00,68.9,67.7,29.81,West,271,7.0,7.0,96,0.01,,---,0.10,VWS V14.01,2013-04-05 12:53:00,
2013-04-05 08:58:00,68.9,67.7,29.81,NW,308,0.0,7.0,96,0.01,,---,0.10,VWS V14.01,2013-04-05 12:58:00,
2013-04-05 09:00:00,68.9,67.7,29.81,WNW,299,3.0,8.0,96,0.01,,---,0.10,VWS V14.01,2013-04-05 13:00:00,
2013-04-05 09:03:00,69.1,67.9,29.81,WSW,246,0.0,7.0,96,0.01,,---,0.10,VWS V14.01,2013-04-05 13:03:00,
2013-04-05 18:00:00,67.3,62.6,29.78,NNW,330,1.0,11.0,85,0.06,,---,0.15,VWS V14.01,2013-04-05 22:00:00,
2013-04-05 18:10:00,67.1,62.5,29.78,NW,318,0.0,11.0,85,0.00,,---,0.15,VWS V14.01,2013-04-05 22:10:00,
2013-04-05 18:20:00,66.4,62.1,29.79,NW,323,0.0,8.0,86,0.00,,---,0.15,VWS V14.01,2013-04-05 22:20:00,
2013-04-05 18:30:00,66.0,62.0,29.79,NW,315,0.0,10.0,87,0.00,,---,0.15,VWS V14.01,2013-04-05 22:30:00,
2013-04-05 18:40:00,65.3,61.3,29.79,NW,315,1.0,7.0,87,0.00,,---,0.15,VWS V14.01,2013-04-05 22:40:00,
2013-04-05 18:50:00,64.8,61.8,29.80,NW,315,1.0,12.0,90,0.00,,---,0.15,VWS V14.01,2013-04-05 22:50:00,
2013-04-05 18:52:00,69.1,67.9,29.81,WNW,282,2.0,8.0,96,0.01,,---,0.10,VWS V14.01,2013-04-05 22:52:00,
2013-04-05 18:57:00,67.4,62.7,29.78,NW,312,0.0,8.0,85,0.06,,---,0.15,VWS V14.01,2013-04-05 22:57:00,
2013-04-05 19:00:00,64.3,61.6,29.81,NW,315,1.0,6.0,91,0.00,,---,0.15,VWS V14.01,2013-04-05 23:00:00,
2013-04-05 19:02:00,67.4,62.7,29.78,NW,312,7.0,10.0,85,0.00,,---,0.15,VWS V14.01,2013-04-05 23:02:00,
2013-04-05 19:07:00,67.3,62.6,29.78,NW,323,0.0,11.0,85,0.00,,---,0.15,VWS V14.01,2013-04-05 23:07:00,
2013-04-05 19:10:00,63.9,61.2,29.81,NW,315,1.0,11.0,91,0.00,,---,0.15,VWS V14.01,2013-04-05 23:10:00,
2013-04-05 19:12:00,66.9,62.9,29.78,NW,326,3.0,5.0,87,0.00,,---,0.15,VWS V14.01,2013-04-05 23:12:00,
2013-04-05 19:17:00,66.6,62.3,29.79,NW,318,3.0,8.0,86,0.00,,---,0.15,VWS V14.01,2013-04-05 23:17:00,
2013-04-05 19:20:00,63.5,61.1,29.81,NW,315,1.0,8.0,92,0.00,,---,0.15,VWS V14.01,2013-04-05 23:20:00,
2013-04-05 19:22:00,66.4,62.1,29.79,NW,319,2.0,3.0,86,0.00,,---,0.15,VWS V14.01,2013-04-05 23:22:00,
2013-04-05 19:27:00,66.1,61.8,29.79,NW,319,1.0,10.0,86,0.00,,---,0.15,VWS V14.01,2013-04-05 23:27:00,
2013-04-05 19:30:00,63.1,60.7,29.83,NW,315,1.0,8.0,92,0.00,,---,0.15,VWS V14.01,2013-04-05 23:30:00,
2013-04-05 19:40:00,62.7,60.7,29.83,NW,315,0.0,6.0,93,0.00,,---,0.15,VWS V14.01,2013-04-05 23:40:00,
2013-04-05 19:50:00,62.7,60.7,29.83,NW,315,1.0,7.0,93,0.00,,---,0.15,VWS V14.01,2013-04-05 23:50:00,
2013-04-05 20:00:00,62.7,61.0,29.84,NW,315,1.0,13.0,94,0.00,,---,0.15,VWS V14.01,2013-04-06 00:00:00,
2013-04-05 20:10:00,62.7,61.2,29.84,NW,315,1.0,8.0,95,0.00,,---,0.15,VWS V14.01,2013-04-06 00:10:00,
2013-04-05 20:20:00,62.6,61.2,29.85,NW,315,1.0,7.0,95,0.00,,---,0.15,VWS V14.01,2013-04-06 00:20:00,
2013-04-05 20:30:00,62.6,61.2,29.86,NW,315,1.0,11.0,95,0.01,,---,0.16,VWS V14.01,2013-04-06 00:30:00,
2013-04-05 20:40:00,62.6,61.2,29.86,NW,315,0.0,7.0,95,0.01,,---,0.16,VWS V14.01,2013-04-06 00:40:00,
2013-04-05 20:50:00,62.7,61.2,29.86,NW,315,1.0,8.0,95,0.01,,---,0.16,VWS V14.01,2013-04-06 00:50:00,
2013-04-05 21:00:00,62.9,61.8,29.87,NW,315,0.0,7.0,96,0.01,,---,0.16,VWS V14.01,2013-04-06 01:00:00,
2013-04-05 21:10:00,62.9,61.5,29.87,NW,315,0.0,7.0,95,0.01,,---,0.16,VWS V14.01,2013-04-06 01:10:00,
2013-04-05 21:20:00,62.9,61.5,29.87,NW,315,0.0,0.0,95,0.01,,---,0.16,VWS V14.01,2013-04-06 01:20:00,
2013-04-05 21:30:00,62.9,61.5,29.87,NW,315,0.0,0.0,95,0.01,,---,0.16,VWS V14.01,2013-04-06 01:30:00,
2013-04-05 21:40:00,62.9,61.5,29.87,NW,315,0.0,0.0,95,0.00,,---,0.16,VWS V14.01,2013-04-06 01:40:00,
2013-04-05 21:50:00,62.9,61.5,29.88,NW,315,0.0,0.0,95,0.00,,---,0.16,VWS V14.01,2013-04-06 01:50:00,
2013-04-05 22:00:00,62.9,61.5,29.88,NW,315,0.0,0.0,95,0.00,,---,0.16,VWS V14.01,2013-04-06 02:00:00,
2013-04-05 22:10:00,62.9,61.5,29.88,NW,315,0.0,0.0,95,0.00,,---,0.16,VWS V14.01,2013-04-06 02:10:00,
2013-04-05 22:20:00,62.3,61.2,29.89,NW,315,0.0,0.0,96,0.00,,---,0.16,VWS V14.01,2013-04-06 02:20:00,
2013-04-05 22:30:00,62.1,61.0,29.89,NW,315,0.0,0.0,96,0.00,,---,0.16,VWS V14.01,2013-04-06 02:30:00,
2013-04-05 22:40:00,62.0,60.8,29.89,NW,315,0.0,0.0,96,0.00,,---,0.16,VWS V14.01,2013-04-06 02:40:00,
2013-04-05 22:50:00,61.8,60.7,29.89,NW,315,0.0,0.0,96,0.00,,---,0.16,VWS V14.01,2013-04-06 02:50:00,
2013-04-05 23:00:00,61.6,60.5,29.90,NW,315,0.0,0.0,96,0.00,,---,0.16,VWS V14.01,2013-04-06 03:00:00,
2013-04-05 23:10:00,62.0,60.8,29.90,NE,45,0.0,1.0,96,0.00,,---,0.16,VWS V14.01,2013-04-06 03:10:00,
2013-04-05 23:20:00,62.3,61.2,29.90,NE,45,0.0,0.0,96,0.00,,---,0.16,VWS V14.01,2013-04-06 03:20:00,
2013-04-05 23:30:00,62.4,61.2,29.91,NE,45,0.0,1.0,96,0.00,,---,0.16,VWS V14.01,2013-04-06 03:30:00,
2013-04-05 23:40:00,62.3,61.2,29.91,ENE,68,0.0,3.0,96,0.00,,---,0.16,VWS V14.01,2013-04-06 03:40:00,
2013-04-05 23:50:00,62.1,61.0,29.91,East,90,0.0,2.0,96,0.00,,---,0.16,VWS V14.01,2013-04-06 03:50:00,